COSMOS 2535 DEB, 44632

Orbit data source: Space-Track

COSMOS 2535 DEB, 44632 is space debris in SSO originally from a launch on Wed, 10 Jul 2019 UTC launched from the Plesetsk Missile And Space Complex (PKMTR). Debris objects in space refer to the collection of defunct objects orbiting the Earth. Examples of debris include non-operational satellites, rocket bodies, and fragments generated from explosions, collisions, or faulty payload assembly.

Loading next visibility...
Identifier
44632, 2019-039J
Orbit
SSO
Country
Flag of CISCIS
Related business
Manufacturer
Unknown
Mission
Spacecraft
Bus & Motor
Unknown
Mass
Unknown
Launch date (UTC)
2019-07-10 (7 years ago)
Launch vehicle
Unknown
Launch site
Plesetsk Missile And Space Complex (PKMTR)
Object type
Payload
Rocket body
Debris
Shape & HBR
Unknown shape, 0.1 m
Radar Cross Section
Small (<0.1 m²)

Expand to show TLE details & history
Last TLE update: 13 hours ago

TLE from 13 hours ago
0 COSMOS 2535 DEB
1 44632U 19039J   26122.38188716  .00009753  00000-0  53080-3 0  9999
2 44632  97.5186 162.3052 0011884 170.4593 189.6867 15.14590732358072
Epoch: 2026-05-02T09:09Z
TLE epoch observation values (Epoch: 2026-05-02T09:09:55.050Z)
Latitude
-0.00002°
Longitude
164.52523°
Altitude
533.387 km
Speed
7.592 km/s
True Right ascension
10h 49m 13s
True Declination
0° 00' 00"
Sunlit
Object was in full shadow at epoch
Visualization orbit readout
Latitude
Unknown
Longitude
Unknown
Altitude
Unknown
Speed
Unknown
Apparent Right ascension
Unknown
Apparent Declination
Unknown
Sunlit
N/A
Visualization observer readout
Local Sidereal Time
06:01:07
Azimuth
Unknown
Elevation
Unknown
Doppler factor
Unknown
Orbital elements
Apogee altitude
527.396 km
Perigee altitude
511.002 km
Semi-major axis
6,897.336 km
Eccentricity
0.00119
Inclination
97.5186°
RAAN
162.3052°
Arg. of periapsis
170.4593°
True anomaly
189.66382°
Mean anomaly
189.6867°
Eccentric anomaly
189.67526°
Mean motion
3.78897 °/min
Orbital period
95.01 mins
BSTAR
0.0005308
Loading maneuver chart data...
Computing Atmospheric mass density...
Loading historical data...
Loading historical data...
Loading historical data...
Loading historical data...
Loading historical data...
Loading historical data...
Loading historical data...

Documentation

Showing up to 5 results
|